Preview of NWS' New Version of Forecast
This preview is not operational and should not be used for support decisions.

Regional Weather Roundup (RWR)

Issued by National Weather Service (NWS)

                            
000
ASUS45 KABQ 250510
RWRNM 
NEW MEXICO REGIONAL WEATHER ROUNDUP
NATIONAL WEATHER SERVICE ALBUQUERQUE NM
1100 PM MDT SAT AUG 24 2019

NOTE: "FAIR" MEANS FEW OR NO CLOUDS BELOW 12,000 FEET AGL WITH NO
       SIGNIFICANT WEATHER OR OBSTRUCTIONS TO VISION.

      THIS PRODUCT IS RELEASED AS TWO VERSIONS.  ONE VERSION NEAR
      THE TOP OF THE HOUR CONTAINING PRELIMINARY DATA FROM ALBUQUERQUE
      AND OTHER STATIONS.  A FINAL VERSION WITH ADDITIONAL DATA IS 
      ISSUED ABOUT 10 MINUTES AFTER THE HOUR.
 
NMZ501-503-504-510>518-250600-
NORTHWEST PLATEAU/NORTHCENTRAL MOUNTAINS
  
CITY           SKY/WX    TMP DP  RH WIND       PRES   REMARKS
FARMINGTON     FAIR      70  25  18 CALM      30.10R                  
LOS ALAMOS       N/A     77  24  14 W13       30.23S                  
SANTA FE       FAIR      71  28  20 NE8       30.16S                  
TAOS           FAIR      64  32  30 SE8       30.24S                  
ANGEL FIRE     FAIR      47  35  61 SE3       30.35R                  

$$
NMZ402-403-502-505>509-250600-
WESTCENTRAL MOUNTAINS/SOUTHWEST MOUNTAINS
  
CITY           SKY/WX    TMP DP  RH WIND       PRES   REMARKS
GALLUP         FAIR      67  29  24 CALM      30.24S                  
GRANTS         FAIR      67  30  25 NW5       30.24S                  
SILVER CITY    FAIR      69  55  59 NW9       30.18S                  

$$
NMZ407-409-411-412-250600-
SOUTHERN DESERTS
  
CITY           SKY/WX    TMP DP  RH WIND       PRES   REMARKS
DEMING         FAIR      81  59  47 W12G21    30.09R                  
LAS CRUCES     FAIR      81  50  34 W10       30.09R                  
HOLLOMAN AFB   FAIR      84  50  30 SE9       30.05S HAZE             
ALAMOGORDO     FAIR      81  48  32 S9        30.05S                  
T OR C         FAIR      85  50  29 W6        30.07S                  

$$
NMZ519>523-250600-
CENTRAL VALLEYS/CENTRAL HIGHLANDS
  
CITY           SKY/WX    TMP DP  RH WIND       PRES   REMARKS
ALBUQUERQUE    FAIR      81  31  16 W6        30.09S                  
DOUBLE EAGLE   FAIR      73  30  20 W9        30.14S                  
MORIARTY ARPT  FAIR      58  35  41 E3        30.17S                  
CLINES CORNERS FAIR      66  26  22 W7        30.24S                  
BELEN          FAIR      77  28  16 NW9       30.08S                  
SOCORRO        FAIR      79  37  22 CALM      30.06S                  

$$
NMZ524>526-539-540-250600-
SOUTHCENTRAL MOUNTAINS
  
CITY           SKY/WX    TMP DP  RH WIND       PRES   REMARKS
RUIDOSO        FAIR      68  39  34 SW8       30.25F                  

$$
NMZ527>531-250600-
NORTHEAST HIGHLANDS/NORTHEAST PLAINS
  
CITY           SKY/WX    TMP DP  RH WIND       PRES   REMARKS
LAS VEGAS      FAIR      66  33  29 W10       30.19S                  
RATON          FAIR      67  45  45 N10       30.13F                  
CLAYTON        FAIR      69  63  81 S10       30.02F                  

$$
NMZ532>537-250600-
EASTCENTRAL PLAINS
  
CITY           SKY/WX    TMP DP  RH WIND       PRES   REMARKS
SANTA ROSA     FAIR      73  49  41 SE5       30.00S                  
TUCUMCARI      FAIR      77  59  53 S10       29.92S                  
CANNON AFB     FAIR      75  61  60 S13       30.01F                  
CLOVIS AIRPORT FAIR      75  62  64 S14       30.01F                  

$$
NMZ028-029-538-250600-
SOUTHEAST PLAINS
  
CITY           SKY/WX    TMP DP  RH WIND       PRES   REMARKS
ROSWELL        FAIR      84  50  30 SE8       29.93F                  
ARTESIA        FAIR      84  55  37 SE20      29.97R                  
CARLSBAD       FAIR      87  54  32 S10       29.95S                  
HOBBS          FAIR      81  61  50 S16G24    30.00S                  


$$